| time (UTC) | temp F | wind direction | speed MPH | gust MPH | rain 1hr in | rain 24hr in | rain mn in | humidity % | barometer mb |
| 20260901080902 | 77 | 193 | 0.0 | 6.0 | 0.00 | 0.00 | 0.00 | 1015.6 | |
| 20260901080403 | 77 | 202 | 0.0 | 6.0 | 0.00 | 0.00 | 0.00 | 1015.6 | |
| 20260901075902 | 77 | 209 | 0.0 | 6.0 | 0.00 | 0.00 | 0.00 | 1015.6 | |
| 20260901075403 | 77 | 184 | 0.0 | 6.0 | 0.00 | 0.00 | 0.00 | 1015.6 | |
| 20260901074903 | 77 | 191 | 0.0 | 6.0 | 0.00 | 0.00 | 0.00 | 1015.3 | |
| 20260901074402 | 77 | 226 | 1.0 | 6.0 | 0.00 | 0.00 | 0.00 | 1015.6 | |
| 20260901073903 | 77 | 243 | 0.0 | 6.0 | 0.00 | 0.00 | 0.00 | 1015.6 | |
| 20260901073402 | 77 | 200 | 0.0 | 6.0 | 0.00 | 0.00 | 0.00 | 1015.6 | |
| 20260901072903 | 77 | 200 | 0.0 | 6.0 | 0.00 | 0.00 | 0.00 | 1015.6 | |
| 20260901072403 | 77 | 202 | 0.0 | 6.0 | 0.00 | 0.00 | 0.00 | 1015.6 | |
| 20260901071903 | 77 | 193 | 1.0 | 6.0 | 0.00 | 0.00 | 0.00 | 1015.6 | |
| 20260901071403 | 77 | 248 | 0.0 | 2.0 | 0.00 | 0.00 | 0.00 | 1015.6 | |
| 20260901070903 | 77 | 270 | 0.0 | 2.0 | 0.00 | 0.00 | 0.00 | 1016.3 | |
| 20260901070403 | 78 | 232 | 0.0 | 2.0 | 0.00 | 0.00 | 0.00 | 1016.0 | |
| 20260901065903 | 78 | 254 | 0.0 | 6.0 | 0.00 | 0.00 | 0.00 | 1015.6 | |
| 20260901065403 | 78 | 240 | 1.0 | 6.0 | 0.00 | 0.00 | 0.00 | 1015.6 | |
| 20260901064903 | 78 | 202 | 0.0 | 6.0 | 0.00 | 0.00 | 0.00 | 1016.3 | |
| 20260901064403 | 78 | 270 | 0.0 | 6.0 | 0.00 | 0.00 | 0.00 | 1016.0 | |
| 20260901063903 | 78 | 269 | 0.0 | 2.0 | 0.00 | 0.00 | 0.00 | 1016.0 | |
| 20260901063404 | 78 | 202 | 0.0 | 5.0 | 0.00 | 0.00 | 0.00 | 1015.3 | |
| 20260901062903 | 79 | 198 | 0.0 | 6.0 | 0.00 | 0.00 | 0.00 | 1016.0 | |
| 20260901062402 | 79 | 310 | 0.0 | 6.0 | 0.00 | 0.00 | 0.00 | 1015.6 | |
| 20260901060902 | 79 | 218 | 0.0 | 2.0 | 0.00 | 0.00 | 0.00 | 1015.6 | |
| 20260901060403 | 79 | 173 | 0.0 | 3.0 | 0.00 | 0.00 | 0.00 | 1015.3 | |
| 20260901055902 | 79 | 195 | 0.0 | 3.0 | 0.00 | 0.00 | 0.00 | 1015.6 | |
| 20260901055403 | 79 | 190 | 0.0 | 3.0 | 0.00 | 0.00 | 0.00 | 1015.3 | |
| 20260901054902 | 79 | 194 | 0.0 | 3.0 | 0.00 | 0.00 | 0.00 | 1015.3 | |
| 20260901054403 | 79 | 199 | 0.0 | 4.0 | 0.00 | 0.00 | 0.00 | 1015.3 | |
| 20260901053903 | 79 | 191 | 1.0 | 4.0 | 0.00 | 0.00 | 0.00 | 1015.3 | |
| 20260901053403 | 80 | 182 | 2.0 | 3.0 | 0.00 | 0.00 | 0.00 | 1015.3 | |
| 20260901052924 | 80 | 187 | 2.0 | 3.0 | 0.00 | 0.00 | 0.00 | 1015.6 | |
| 20260901052403 | 80 | 190 | 1.0 | 3.0 | 0.00 | 0.00 | 0.00 | 1016.0 | |
| 20260901051903 | 80 | 186 | 2.0 | 3.0 | 0.00 | 0.00 | 0.00 | 1015.6 | |
| 20260901051424 | 80 | 190 | 2.0 | 4.0 | 0.00 | 0.00 | 0.00 | 1015.3 | |
| 20260901050903 | 80 | 200 | 2.0 | 4.0 | 0.00 | 0.00 | 0.00 | 1015.6 | |
| 20260901050403 | 80 | 203 | 2.0 | 6.0 | 0.00 | 0.00 | 0.00 | 1016.0 | |
| 20260901045903 | 80 | 165 | 0.0 | 6.0 | 0.00 | 0.00 | 0.00 | 1016.0 | |
| 20260901045403 | 80 | 217 | 1.0 | 6.0 | 0.00 | 0.00 | 0.00 | 1016.3 | |
| 20260901044903 | 80 | 185 | 1.0 | 3.0 | 0.00 | 0.00 | 0.00 | 1016.3 | |
| 20260901044403 | 80 | 177 | 1.0 | 3.0 | 0.00 | 0.00 | 0.00 | 1016.0 | |
| 20260901043904 | 81 | 185 | 2.0 | 3.0 | 0.00 | 0.00 | 0.00 | 1016.0 | |
| 20260901043403 | 80 | 185 | 1.0 | 2.0 | 0.00 | 0.00 | 0.00 | 1016.0 | |
| 20260901042903 | 80 | 186 | 1.0 | 4.0 | 0.00 | 0.00 | 0.00 | 1016.3 | |
| 20260901042424 | 80 | 196 | 1.0 | 5.0 | 0.00 | 0.00 | 0.00 | 1015.6 | |
| 20260901041902 | 80 | 194 | 3.0 | 5.0 | 0.00 | 0.00 | 0.00 | 1016.0 | |
| 20260901041403 | 80 | 198 | 2.0 | 4.0 | 0.00 | 0.00 | 0.00 | 1016.0 | |
| 20260901040903 | 80 | 190 | 2.0 | 3.0 | 0.00 | 0.00 | 0.00 | 1016.0 | |
| 20260901040403 | 80 | 188 | 2.0 | 3.0 | 0.00 | 0.00 | 0.00 | 1016.6 | |
| 20260901035903 | 80 | 198 | 0.0 | 5.0 | 0.00 | 0.00 | 0.00 | 1015.6 | |
| 20260901035424 | 80 | 187 | 0.0 | 6.0 | 0.00 | 0.00 | 0.00 | 1016.6 | |
| 20260901034903 | 80 | 198 | 0.0 | 6.0 | 0.00 | 0.00 | 0.00 | 1016.6 | |
| 20260901034402 | 80 | 193 | 0.0 | 4.0 | 0.00 | 0.00 | 0.00 | 1016.0 | |
| 20260901033903 | 80 | 165 | 0.0 | 3.0 | 0.00 | 0.00 | 0.00 | 1016.3 | |
| 20260901033404 | 80 | 185 | 0.0 | 4.0 | 0.00 | 0.00 | 0.00 | 1016.3 | |
| 20260901032903 | 80 | 194 | 0.0 | 4.0 | 0.00 | 0.00 | 0.00 | 1016.3 | |
| 20260901032403 | 80 | 191 | 0.0 | 6.0 | 0.00 | 0.00 | 0.00 | 1016.6 | |
| 20260901031903 | 80 | 201 | 0.0 | 6.0 | 0.00 | 0.00 | 0.00 | 1016.3 | |
| 20260901031424 | 80 | 191 | 0.0 | 6.0 | 0.00 | 0.00 | 0.00 | 1016.6 | |
| 20260901030923 | 80 | 172 | 0.0 | 6.0 | 0.00 | 0.00 | 0.00 | 1017.0 | |
| 20260901030403 | 80 | 180 | 0.0 | 6.0 | 0.00 | 0.00 | 0.00 | 1017.3 | |
| 20260901025903 | 80 | 195 | 0.0 | 1.0 | 0.00 | 0.00 | 0.00 | 1016.6 | |
| 20260901025403 | 80 | 203 | 0.0 | 6.0 | 0.00 | 0.00 | 0.00 | 1016.6 | |
| 20260901024903 | 80 | 195 | 0.0 | 6.0 | 0.00 | 0.00 | 0.00 | 1016.3 | |
| 20260901024402 | 80 | 193 | 0.0 | 6.0 | 0.00 | 0.00 | 0.00 | 1017.0 | |
| 20260901022902 | 81 | 202 | 0.0 | 6.0 | 0.00 | 0.00 | 0.00 | 1017.0 | |
| 20260901022424 | 80 | 179 | 2.0 | 6.0 | 0.00 | 0.00 | 0.00 | 1016.6 | |
| 20260901021903 | 80 | 168 | 1.0 | 6.0 | 0.00 | 0.00 | 0.00 | 1016.6 | |
| 20260901021403 | 81 | 178 | 1.0 | 6.0 | 0.00 | 0.00 | 0.00 | 1017.0 | |
| 20260901020923 | 81 | 315 | 0.0 | 6.0 | 0.00 | 0.00 | 0.00 | 1017.0 | |
| 20260901020403 | 81 | 203 | 0.0 | 6.0 | 0.00 | 0.00 | 0.00 | 1017.3 | |
| 20260901015924 | 81 | 180 | 0.0 | 6.0 | 0.00 | 0.00 | 0.00 | 1016.3 | |
| 20260901015403 | 81 | 202 | 0.0 | 6.0 | 0.00 | 0.00 | 0.00 | 1016.6 | |
| 20260901014902 | 81 | 248 | 0.0 | 0.0 | 0.00 | 0.00 | 0.00 | 1016.6 | |
| 20260901014403 | 82 | 360 | 0.0 | 0.0 | 0.00 | 0.00 | 0.00 | 1017.3 | |
| 20260901013903 | 82 | 360 | 0.0 | 0.0 | 0.00 | 0.00 | 0.00 | 1017.0 | |
| 20260901013403 | 82 | 248 | 0.0 | 0.0 | 0.00 | 0.00 | 0.00 | 1016.6 | |
| 20260901012903 | 82 | 203 | 0.0 | 6.0 | 0.00 | 0.00 | 0.00 | 1017.0 | |
| 20260901012424 | 82 | 180 | 0.0 | 6.0 | 0.00 | 0.00 | 0.00 | 1016.6 | |
| 20260901011903 | 82 | 180 | 0.0 | 0.0 | 0.00 | 0.00 | 0.00 | 1016.6 | |
| 20260901011403 | 82 | 158 | 0.0 | 0.0 | 0.00 | 0.00 | 0.00 | 1016.6 | |
| 20260901010903 | 82 | 360 | 0.0 | 0.0 | 0.00 | 0.00 | 0.00 | 1017.3 | |
| 20260901010403 | 82 | 293 | 0.0 | 0.0 | 0.00 | 0.00 | 0.00 | 1016.6 | |
| 20260901005903 | 82 | 270 | 0.0 | 0.0 | 0.00 | 0.00 | 0.00 | 1016.3 | |
| 20260901005403 | 82 | 248 | 0.0 | 0.0 | 0.00 | 0.00 | 0.00 | 1016.3 | |
| 20260901003903 | 83 | 225 | 0.0 | 0.0 | 0.00 | 0.00 | 0.00 | 1016.3 | |
| 20260901003424 | 84 | 225 | 0.0 | 0.0 | 0.00 | 0.00 | 0.00 | 1016.6 | |
| 20260901002924 | 84 | 203 | 0.0 | 0.0 | 0.00 | 0.00 | 0.00 | 1016.6 | |
| 20260901002402 | 84 | 270 | 0.0 | 0.0 | 0.00 | 0.00 | 0.00 | 1016.6 | |
| 20260901001903 | 85 | 360 | 0.0 | 0.0 | 0.00 | 0.00 | 0.00 | 1016.6 | |
| 20260901001402 | 85 | 360 | 0.0 | 0.0 | 0.00 | 0.00 | 0.00 | 1017.0 | |
| 20260901000903 | 86 | 338 | 0.0 | 0.0 | 0.00 | 0.00 | 0.00 | 1016.6 | |
| 20260901000424 | 86 | 360 | 0.0 | 0.0 | 0.00 | 0.00 | 0.00 | 1016.6 | |
| 20260831235903 | 86 | 135 | 0.0 | 6.0 | 0.00 | 0.00 | 0.00 | 1016.0 | |
| 20260831235403 | 86 | 238 | 0.0 | 6.0 | 0.00 | 0.00 | 0.00 | 1016.0 | |
| 20260831234903 | 87 | 299 | 0.0 | 6.0 | 0.00 | 0.00 | 0.00 | 1016.6 | |
| 20260831233402 | 88 | 215 | 1.0 | 6.0 | 0.00 | 0.00 | 0.00 | 1016.0 | |
| 20260831232903 | 88 | 266 | 1.0 | 4.0 | 0.00 | 0.00 | 0.00 | 1016.0 | |
| 20260831232403 | 89 | 276 | 2.0 | 10.0 | 0.00 | 0.00 | 0.00 | 1016.3 | |
| 20260831231903 | 88 | 264 | 1.0 | 10.0 | 0.00 | 0.00 | 0.00 | 1016.0 | |
| 20260831231403 | 89 | 283 | 1.0 | 8.0 | 0.00 | 0.00 | 0.00 | 1016.3 | |
| 20260831230902 | 88 | 265 | 1.0 | 8.0 | 0.00 | 0.00 | 0.00 | 1016.0 | |
| 20260831230424 | 88 | 259 | 0.0 | 5.0 | 0.00 | 0.00 | 0.00 | 1016.0 | |
| 20260831225903 | 89 | 223 | 1.0 | 6.0 | 0.00 | 0.00 | 0.00 | 1015.6 | |
| 20260831225402 | 89 | 280 | 3.0 | 6.0 | 0.00 | 0.00 | 0.00 | 1016.0 | |
| 20260831224903 | 89 | 258 | 0.0 | 12.0 | 0.00 | 0.00 | 0.00 | 1016.3 | |
| 20260831224403 | 88 | 274 | 4.0 | 12.0 | 0.00 | 0.00 | 0.00 | 1016.0 | |
| 20260831223903 | 88 | 279 | 1.0 | 7.0 | 0.00 | 0.00 | 0.00 | 1016.0 | |
| 20260831223402 | 88 | 274 | 4.0 | 10.0 | 0.00 | 0.00 | 0.00 | 1015.6 | |
| 20260831222924 | 88 | 280 | 5.0 | 10.0 | 0.00 | 0.00 | 0.00 | 1015.6 | |
| 20260831222402 | 89 | 281 | 1.0 | 8.0 | 0.00 | 0.00 | 0.00 | 1015.3 | |
| 20260831221903 | 89 | 207 | 2.0 | 7.0 | 0.00 | 0.00 | 0.00 | 1016.0 | |
| 20260831221402 | 90 | 206 | 2.0 | 10.0 | 0.00 | 0.00 | 0.00 | 1015.3 | |
| 20260831220903 | 90 | 272 | 4.0 | 10.0 | 0.00 | 0.00 | 0.00 | 1015.3 | |
| 20260831220403 | 91 | 270 | 2.0 | 6.0 | 0.00 | 0.00 | 0.00 | 1015.6 | |
| 20260831215903 | 91 | 266 | 1.0 | 6.0 | 0.00 | 0.00 | 0.00 | 1015.3 | |
| 20260831215403 | 91 | 250 | 2.0 | 6.0 | 0.00 | 0.00 | 0.00 | 1015.3 | |
| 20260831214925 | 90 | 209 | 2.0 | 7.0 | 0.00 | 0.00 | 0.00 | 1014.9 | |
| 20260831214403 | 90 | 200 | 4.0 | 7.0 | 0.00 | 0.00 | 0.00 | 1015.3 | |
| 20260831213903 | 90 | 191 | 3.0 | 7.0 | 0.00 | 0.00 | 0.00 | 1014.9 | |
| 20260831213403 | 90 | 197 | 2.0 | 8.0 | 0.00 | 0.00 | 0.00 | 1015.6 | |
| 20260831212403 | 90 | 239 | 3.0 | 10.0 | 0.00 | 0.00 | 0.00 | 1015.6 | |
| 20260831211903 | 90 | 273 | 4.0 | 10.0 | 0.00 | 0.00 | 0.00 | 1016.3 | |
| 20260831211403 | 90 | 226 | 2.0 | 9.0 | 0.00 | 0.00 | 0.00 | 1016.0 | |
| 20260831210903 | 91 | 193 | 3.0 | 9.0 | 0.00 | 0.00 | 0.00 | 1016.3 | |
| 20260831210425 | 92 | 246 | 2.0 | 9.0 | 0.00 | 0.00 | 0.00 | 1016.0 | |
| 20260831205903 | 92 | 275 | 3.0 | 9.0 | 0.00 | 0.00 | 0.00 | 1015.6 | |
| 20260831205403 | 91 | 208 | 1.0 | 7.0 | 0.00 | 0.00 | 0.00 | 1015.6 | |
| 20260831204903 | 90 | 230 | 0.0 | 15.0 | 0.00 | 0.00 | 0.00 | 1016.3 | |
| 20260831204424 | 89 | 264 | 4.0 | 15.0 | 0.00 | 0.00 | 0.00 | 1016.6 | |
| 20260831203903 | 89 | 258 | 3.0 | 13.0 | 0.00 | 0.00 | 0.00 | 1016.3 | |
| 20260831203403 | 89 | 266 | 4.0 | 13.0 | 0.00 | 0.00 | 0.00 | 1016.6 | |
| 20260831202903 | 89 | 286 | 3.0 | 12.0 | 0.00 | 0.00 | 0.00 | 1016.6 | |
| 20260831201424 | 89 | 227 | 1.0 | 9.0 | 0.00 | 0.00 | 0.00 | 1016.3 | |
| 20260831200902 | 89 | 272 | 2.0 | 7.0 | 0.00 | 0.00 | 0.00 | 1016.6 | |
| 20260831200403 | 90 | 265 | 2.0 | 4.0 | 0.00 | 0.00 | 0.00 | 1016.6 | |
| 20260831195903 | 90 | 339 | 1.0 | 9.0 | 0.00 | 0.00 | 0.00 | 1017.3 | |
| 20260831195423 | 90 | 282 | 2.0 | 9.0 | 0.00 | 0.00 | 0.00 | 1017.3 | |
| 20260831194903 | 90 | 309 | 0.0 | 8.0 | 0.00 | 0.00 | 0.00 | 1017.0 | |
| 20260831194403 | 91 | 265 | 2.0 | 6.0 | 0.00 | 0.00 | 0.00 | 1017.3 | |
| 20260831193903 | 91 | 321 | 2.0 | 6.0 | 0.00 | 0.00 | 0.00 | 1017.3 | |
| 20260831193402 | 91 | 294 | 2.0 | 9.0 | 0.00 | 0.00 | 0.00 | 1017.6 | |
| 20260831192903 | 90 | 286 | 3.0 | 10.0 | 0.00 | 0.00 | 0.00 | 1017.3 | |
| 20260831192402 | 90 | 294 | 6.0 | 11.0 | 0.00 | 0.00 | 0.00 | 1017.3 | |
| 20260831191924 | 90 | 301 | 6.0 | 11.0 | 0.00 | 0.00 | 0.00 | 1017.6 | |
| 20260831191403 | 90 | 278 | 2.0 | 6.0 | 0.00 | 0.00 | 0.00 | 1017.6 | |
| 20260831190903 | 89 | 275 | 3.0 | 10.0 | 0.00 | 0.00 | 0.00 | 1017.3 | |
| 20260831190403 | 89 | 283 | 3.0 | 10.0 | 0.00 | 0.00 | 0.00 | 1017.3 | |
| 20260831185903 | 89 | 285 | 4.0 | 10.0 | 0.00 | 0.00 | 0.00 | 1017.3 | |
| 20260831185403 | 89 | 271 | 4.0 | 10.0 | 0.00 | 0.00 | 0.00 | 1017.6 | |
| 20260831184903 | 89 | 257 | 3.0 | 10.0 | 0.00 | 0.00 | 0.00 | 1017.3 | |
| 20260831184402 | 89 | 259 | 3.0 | 14.0 | 0.00 | 0.00 | 0.00 | 1017.6 | |
| 20260831183924 | 89 | 267 | 6.0 | 14.0 | 0.00 | 0.00 | 0.00 | 1017.6 | |
| 20260831183403 | 89 | 275 | 3.0 | 14.0 | 0.00 | 0.00 | 0.00 | 1017.6 | |
| 20260831182902 | 89 | 274 | 1.0 | 10.0 | 0.00 | 0.00 | 0.00 | 1017.6 | |
| 20260831181402 | 88 | 303 | 4.0 | 9.0 | 0.00 | 0.00 | 0.00 | 1018.0 | |
| 20260831180903 | 88 | 276 | 5.0 | 9.0 | 0.00 | 0.00 | 0.00 | 1018.3 | |
| 20260831180402 | 88 | 279 | 4.0 | 9.0 | 0.00 | 0.00 | 0.00 | 1018.0 | |
| 20260831175924 | 88 | 307 | 2.0 | 7.0 | 0.00 | 0.00 | 0.00 | 1018.0 | |
| 20260831175403 | 88 | 268 | 3.0 | 7.0 | 0.00 | 0.00 | 0.00 | 1018.0 | |
| 20260831174903 | 88 | 297 | 1.0 | 5.0 | 0.00 | 0.00 | 0.00 | 1018.3 | |
| 20260831174403 | 88 | 184 | 2.0 | 12.0 | 0.00 | 0.00 | 0.00 | 1018.7 | |
| 20260831173903 | 88 | 258 | 3.0 | 12.0 | 0.00 | 0.00 | 0.00 | 1018.3 | |
| 20260831173403 | 88 | 299 | 5.0 | 10.0 | 0.00 | 0.00 | 0.00 | 1018.7 | |
| 20260831172903 | 88 | 233 | 4.0 | 10.0 | 0.00 | 0.00 | 0.00 | 1018.7 | |
| 20260831172446 | 88 | 248 | 2.0 | 10.0 | 0.00 | 0.00 | 0.00 | 1018.3 | |
| 20260831171902 | 88 | 219 | 3.0 | 10.0 | 0.00 | 0.00 | 0.00 | 1018.7 | |
| 20260831171424 | 88 | 270 | 2.0 | 9.0 | 0.00 | 0.00 | 0.00 | 1018.7 | |
| 20260831170903 | 87 | 292 | 5.0 | 10.0 | 0.00 | 0.00 | 0.00 | 1018.7 | |
| 20260831170403 | 87 | 277 | 3.0 | 10.0 | 0.00 | 0.00 | 0.00 | 1018.7 | |
| 20260831165903 | 87 | 258 | 4.0 | 8.0 | 0.00 | 0.00 | 0.00 | 1018.3 | |
| 20260831165403 | 87 | 185 | 1.0 | 7.0 | 0.00 | 0.00 | 0.00 | 1019.0 | |
| 20260831164903 | 87 | 236 | 2.0 | 11.0 | 0.00 | 0.00 | 0.00 | 1018.7 | |
| 20260831164403 | 87 | 274 | 2.0 | 11.0 | 0.00 | 0.00 | 0.00 | 1019.0 | |
| 20260831163903 | 87 | 224 | 2.0 | 8.0 | 0.00 | 0.00 | 0.00 | 1019.3 | |
| 20260831163424 | 87 | 181 | 1.0 | 8.0 | 0.00 | 0.00 | 0.00 | 1019.0 | |
| 20260831162903 | 87 | 242 | 0.0 | 6.0 | 0.00 | 0.00 | 0.00 | 1018.7 | |
| 20260831162403 | 87 | 197 | 2.0 | 10.0 | 0.00 | 0.00 | 0.00 | 1019.3 | |
| 20260831161903 | 86 | 281 | 4.0 | 12.0 | 0.00 | 0.00 | 0.00 | 1019.0 | |
| 20260831161424 | 86 | 274 | 6.0 | 12.0 | 0.00 | 0.00 | 0.00 | 1019.3 | |
| 20260831160903 | 86 | 199 | 2.0 | 7.0 | 0.00 | 0.00 | 0.00 | 1019.3 | |
| 20260831160402 | 86 | 246 | 2.0 | 7.0 | 0.00 | 0.00 | 0.00 | 1019.0 | |
| 20260831155924 | 85 | 211 | 2.0 | 12.0 | 0.00 | 0.00 | 0.00 | 1019.3 | |
| 20260831155403 | 85 | 282 | 5.0 | 12.0 | 0.00 | 0.00 | 0.00 | 1019.0 | |
| 20260831154902 | 85 | 199 | 1.0 | 12.0 | 0.00 | 0.00 | 0.00 | 1019.3 | |
| 20260831154403 | 84 | 275 | 3.0 | 12.0 | 0.00 | 0.00 | 0.00 | 1019.0 | |
| 20260831153903 | 85 | 262 | 3.0 | 7.0 | 0.00 | 0.00 | 0.00 | 1019.0 | |
| 20260831153403 | 85 | 284 | 2.0 | 6.0 | 0.00 | 0.00 | 0.00 | 1019.0 | |
| 20260831152924 | 84 | 240 | 1.0 | 6.0 | 0.00 | 0.00 | 0.00 | 1019.0 | |
| 20260831152403 | 85 | 231 | 2.0 | 6.0 | 0.00 | 0.00 | 0.00 | 1019.3 | |
| 20260831151903 | 85 | 230 | 2.0 | 6.0 | 0.00 | 0.00 | 0.00 | 1019.0 | |
| 20260831151403 | 84 | 265 | 2.0 | 6.0 | 0.00 | 0.00 | 0.00 | 1018.7 | |
| 20260831150902 | 84 | 220 | 0.0 | 5.0 | 0.00 | 0.00 | 0.00 | 1018.7 | |
| 20260831150403 | 84 | 238 | 2.0 | 8.0 | 0.00 | 0.00 | 0.00 | 1018.7 | |
| 20260831145903 | 84 | 282 | 0.0 | 8.0 | 0.00 | 0.00 | 0.00 | 1019.0 | |
| 20260831145424 | 84 | 271 | 4.0 | 8.0 | 0.00 | 0.00 | 0.00 | 1019.0 | |
| 20260831144903 | 84 | 240 | 2.0 | 8.0 | 0.00 | 0.00 | 0.00 | 1018.7 | |
| 20260831144403 | 83 | 271 | 3.0 | 9.0 | 0.00 | 0.00 | 0.00 | 1018.7 | |
| 20260831143903 | 83 | 269 | 4.0 | 9.0 | 0.00 | 0.00 | 0.00 | 1018.7 | |
| 20260831143403 | 82 | 215 | 0.0 | 5.0 | 0.00 | 0.00 | 0.00 | 1019.0 | |
| 20260831142903 | 82 | 229 | 1.0 | 5.0 | 0.00 | 0.00 | 0.00 | 1018.3 | |
| 20260831142403 | 82 | 212 | 2.0 | 8.0 | 0.00 | 0.00 | 0.00 | 1018.7 | |
| 20260831141903 | 81 | 266 | 2.0 | 8.0 | 0.00 | 0.00 | 0.00 | 1018.3 | |
| 20260831141403 | 81 | 285 | 0.0 | 5.0 | 0.00 | 0.00 | 0.00 | 1018.7 | |
| 20260831135924 | 80 | 193 | 1.0 | 5.0 | 0.00 | 0.00 | 0.00 | 1019.0 | |
| 20260831135402 | 80 | 145 | 0.0 | 5.0 | 0.00 | 0.00 | 0.00 | 1018.7 | |
| 20260831134903 | 80 | 194 | 1.0 | 3.0 | 0.00 | 0.00 | 0.00 | 1018.3 | |
| 20260831134403 | 80 | 213 | 1.0 | 4.0 | 0.00 | 0.00 | 0.00 | 1018.7 | |
| 20260831133924 | 80 | 193 | 1.0 | 4.0 | 0.00 | 0.00 | 0.00 | 1018.3 | |
| 20260831133424 | 80 | 259 | 0.0 | 4.0 | 0.00 | 0.00 | 0.00 | 1018.3 | |
| 20260831132925 | 80 | 204 | 0.0 | 6.0 | 0.00 | 0.00 | 0.00 | 1018.3 | |
| 20260831132425 | 80 | 253 | 1.0 | 6.0 | 0.00 | 0.00 | 0.00 | 1018.3 | |
| 20260831131902 | 80 | 196 | 2.0 | 3.0 | 0.00 | 0.00 | 0.00 | 1018.3 | |
| 20260831131403 | 79 | 289 | 0.0 | 6.0 | 0.00 | 0.00 | 0.00 | 1018.3 | |
| 20260831130903 | 78 | 202 | 0.0 | 6.0 | 0.00 | 0.00 | 0.00 | 1018.7 | |
| 20260831130403 | 78 | 231 | 0.0 | 6.0 | 0.00 | 0.00 | 0.00 | 1018.7 | |
| 20260831125904 | 78 | 218 | 0.0 | 6.0 | 0.00 | 0.00 | 0.00 | 1018.7 | |
| 20260831125424 | 77 | 205 | 1.0 | 4.0 | 0.00 | 0.00 | 0.00 | 1018.3 | |
| 20260831124903 | 77 | 186 | 0.0 | 5.0 | 0.00 | 0.00 | 0.00 | 1018.3 | |
| 20260831124402 | 77 | 212 | 0.0 | 5.0 | 0.00 | 0.00 | 0.00 | 1018.0 | |
| 20260831123924 | 77 | 212 | 0.0 | 2.0 | 0.00 | 0.00 | 0.00 | 1018.3 | |
| 20260831123424 | 76 | 192 | 0.0 | 5.0 | 0.00 | 0.00 | 0.00 | 1018.0 | |
| 20260831122904 | 77 | 201 | 0.0 | 5.0 | 0.00 | 0.00 | 0.00 | 1018.0 | |
| 20260831122403 | 76 | 209 | 0.0 | 3.0 | 0.00 | 0.00 | 0.00 | 1018.3 | |
| 20260831121924 | 76 | 202 | 0.0 | 1.0 | 0.00 | 0.00 | 0.00 | 1018.3 | |
| 20260831121404 | 76 | 196 | 0.0 | 6.0 | 0.00 | 0.00 | 0.00 | 1017.6 | |
| 20260831120903 | 76 | 206 | 0.0 | 6.0 | 0.00 | 0.00 | 0.00 | 1017.6 | |
| 20260831120424 | 75 | 180 | 0.0 | 6.0 | 0.00 | 0.00 | 0.00 | 1017.6 | |
| 20260831115903 | 75 | 158 | 0.0 | 6.0 | 0.00 | 0.00 | 0.00 | 1018.3 | |
| 20260831115403 | 75 | 203 | 0.0 | 6.0 | 0.00 | 0.00 | 0.00 | 1017.6 | |
| 20260831114903 | 75 | 202 | 0.0 | 6.0 | 0.00 | 0.00 | 0.00 | 1017.6 | |
| 20260831114424 | 75 | 202 | 0.0 | 4.0 | 0.00 | 0.00 | 0.00 | 1017.6 | |
| 20260831113903 | 75 | 203 | 0.0 | 6.0 | 0.00 | 0.00 | 0.00 | 1017.6 | |
| 20260831113402 | 75 | 203 | 0.0 | 6.0 | 0.00 | 0.00 | 0.00 | 1017.6 | |
| 20260831112924 | 75 | 192 | 0.0 | 4.0 | 0.00 | 0.00 | 0.00 | 1017.6 | |
| 20260831112403 | 75 | 191 | 0.0 | 4.0 | 0.00 | 0.00 | 0.00 | 1018.3 | |
| 20260831111903 | 75 | 207 | 0.0 | 6.0 | 0.00 | 0.00 | 0.00 | 1017.3 | |
| 20260831111445 | 75 | 184 | 0.0 | 6.0 | 0.00 | 0.00 | 0.00 | 1018.0 | |
| 20260831110903 | 75 | 197 | 0.0 | 2.0 | 0.00 | 0.00 | 0.00 | 1017.6 | |
| 20260831110403 | 75 | 182 | 0.0 | 3.0 | 0.00 | 0.00 | 0.00 | 1018.0 | |
| 20260831105903 | 75 | 183 | 0.0 | 6.0 | 0.00 | 0.00 | 0.00 | 1017.6 | |
| 20260831105402 | 75 | 182 | 0.0 | 6.0 | 0.00 | 0.00 | 0.00 | 1017.3 | |
| 20260831104903 | 75 | 183 | 0.0 | 6.0 | 0.00 | 0.00 | 0.00 | 1018.3 | |
| 20260831104403 | 75 | 202 | 0.0 | 6.0 | 0.00 | 0.00 | 0.00 | 1017.6 | |
| 20260831103903 | 75 | 202 | 0.0 | 4.0 | 0.00 | 0.00 | 0.00 | 1017.6 | |
| 20260831103403 | 75 | 180 | 0.0 | 4.0 | 0.00 | 0.00 | 0.00 | 1017.3 | |
| 20260831102903 | 75 | 188 | 0.0 | 6.0 | 0.00 | 0.00 | 0.00 | 1018.0 | |
| 20260831102424 | 75 | 182 | 0.0 | 6.0 | 0.00 | 0.00 | 0.00 | 1018.0 | |
| 20260831101903 | 75 | 169 | 0.0 | 5.0 | 0.00 | 0.00 | 0.00 | 1017.6 | |
| 20260831101402 | 75 | 180 | 0.0 | 6.0 | 0.00 | 0.00 | 0.00 | 1018.0 | |
| 20260831100903 | 75 | 180 | 0.0 | 6.0 | 0.00 | 0.00 | 0.00 | 1017.3 | |
| 20260831100403 | 75 | 202 | 0.0 | 3.0 | 0.00 | 0.00 | 0.00 | 1017.6 | |
| 20260831095925 | 75 | 198 | 0.0 | 3.0 | 0.00 | 0.00 | 0.00 | 1017.3 | |
| 20260831095404 | 75 | 184 | 0.0 | 6.0 | 0.00 | 0.00 | 0.00 | 1018.0 | |
| 20260831094903 | 75 | 185 | 0.0 | 6.0 | 0.00 | 0.00 | 0.00 | 1017.6 | |
| 20260831094402 | 75 | 203 | 0.0 | 6.0 | 0.00 | 0.00 | 0.00 | 1017.6 | |
| 20260831093903 | 75 | 203 | 0.0 | 6.0 | 0.00 | 0.00 | 0.00 | 1018.0 | |
| 20260831093424 | 75 | 185 | 0.0 | 3.0 | 0.00 | 0.00 | 0.00 | 1017.3 | |
| 20260831092924 | 75 | 202 | 0.0 | 6.0 | 0.00 | 0.00 | 0.00 | 1017.6 | |
| 20260831092403 | 75 | 184 | 0.0 | 6.0 | 0.00 | 0.00 | 0.00 | 1017.6 | |
| 20260831091903 | 75 | 180 | 0.0 | 6.0 | 0.00 | 0.00 | 0.00 | 1017.3 | |
| 20260831091403 | 75 | 195 | 0.0 | 2.0 | 0.00 | 0.00 | 0.00 | 1017.6 | |
| 20260831090903 | 74 | 180 | 0.0 | 2.0 | 0.00 | 0.00 | 0.00 | 1017.6 | |
| 20260831090403 | 75 | 360 | 0.0 | 0.0 | 0.00 | 0.00 | 0.00 | 1018.0 | |
| 20260831085903 | 75 | 360 | 0.0 | 2.0 | 0.00 | 0.00 | 0.00 | 1017.6 | |
| 20260831085403 | 75 | 360 | 0.0 | 2.0 | 0.00 | 0.00 | 0.00 | 1018.0 | |
| 20260831084903 | 75 | 180 | 0.0 | 6.0 | 0.00 | 0.00 | 0.00 | 1017.3 | |
| 20260831084403 | 75 | 180 | 0.0 | 6.0 | 0.00 | 0.00 | 0.00 | 1017.0 | |
| 20260831083902 | 75 | 202 | 0.0 | 6.0 | 0.00 | 0.00 | 0.00 | 1017.6 | |
| 20260831083403 | 75 | 203 | 0.0 | 6.0 | 0.00 | 0.00 | 0.00 | 1017.0 | |
| 20260831082903 | 74 | 181 | 0.0 | 2.0 | 0.00 | 0.00 | 0.00 | 1017.0 | |
| 20260831082424 | 74 | 180 | 0.0 | 1.0 | 0.00 | 0.00 | 0.00 | 1017.0 | |
| 20260831081903 | 74 | 202 | 0.0 | 1.0 | 0.00 | 0.00 | 0.00 | 1018.0 |